RH
73 79 74 65 80 74 60 49 36 28 25 22 20 20 21 25 39 46 51 60 74 76 71 67 63 61 60 62 65 67 67 71 72 71 73 74 74 76 76 74 75 77 78
66 74 70 81 80 72 54 42 35 27 24 21 21 21 22 25 36 45 43 48 48 49 56 54 54 54 54 60 63 66 70 74 73 74 74 77 77 76 78 76 76 76 74
63 61 71 82 62 47 45 40 32 24 21 21 22 22 22 25 33 40 36 33 30 29 38 48 47 48 50 54 58 62 69 72 73 74 78 78 80 80 80 80 78 76 76
61 65 74 76 52 47 44 37 25 22 20 18 19 19 23 25 30 37 34 31 30 28 29 28 28 31 42 53 56 58 62 68 71 78 79 83 82 79 79 80 80 79 77
64 67 69 57 51 48 42 29 21 21 21 19 18 20 28 26 29 31 30 29 30 29 26 23 22 22 22 39 48 51 55 61 66 76 79 80 78 78 78 77 77 76 75
64 68 65 58 51 46 37 23 23 25 23 21 23 25 31 31 27 28 28 30 30 27 24 23 22 23 24 26 34 42 48 56 62 66 73 77 77 76 75 74 74 73 72
65 68 65 57 53 49 36 25 29 28 23 22 25 30 28 34 29 29 31 31 28 25 24 24 24 27 28 28 28 39 44 50 54 61 66 73 73 74 73 72 70 70 70
66 66 65 63 54 40 26 28 31 31 27 21 25 34 38 31 31 35 34 29 25 24 25 27 29 29 31 31 30 35 34 42 50 53 61 70 71 70 70 69 68 67 66
68 66 67 64 51 38 28 30 33 33 31 24 21 26 43 40 35 26 29 27 26 26 28 27 26 30 32 31 30 30 29 40 44 52 60 65 67 67 67 66 65 65 62
70 68 65 58 50 35 29 32 34 34 33 29 26 21 21 23 32 28 26 29 28 28 26 24 28 27 31 31 29 30 35 46 44 52 57 62 64 64 65 64 64 62 64
70 66 59 55 41 31 31 34 34 35 33 31 29 26 26 28 29 37 40 36 30 27 26 28 29 29 34 32 30 38 54 54 53 56 60 63 62 62 63 63 61 62 63
64 61 55 50 39 31 34 34 34 33 32 30 26 25 24 30 38 40 50 50 46 35 33 30 31 35 33 35 36 37 54 57 60 59 59 60 60 61 62 61 61 67 61
58 47 51 44 36 34 34 34 33 32 31 30 29 28 28 29 30 35 41 50 56 46 40 37 35 34 36 38 33 36 54 60 59 60 61 63 64 64 62 63 62 60 59
55 50 43 42 38 37 34 34 33 32 32 30 29 29 30 33 36 39 42 48 64 60 49 41 38 39 40 37 46 57 56 61 63 63 63 65 65 65 65 66 62 61 59
56 50 43 39 41 34 36 33 33 33 32 30 31 31 34 36 39 41 42 45 51 66 67 45 41 41 45 51 58 63 62 58 63 63 66 70 70 69 65 63 62 64 70
56 48 42 44 42 38 34 34 34 33 32 31 32 34 36 38 40 43 45 48 47 51 68 47 44 48 53 58 60 62 59 72 71 76 74 71 69 67 66 65 65 63 67
51 45 46 47 41 51 44 34 33 32 31 32 33 36 38 40 42 45 47 46 47 48 66 56 57 58 64 67 66 59 65 72 65 74 76 71 69 67 66 67 67 68 68
48 49 47 45 49 41 52 51 40 31 31 32 34 36 38 42 45 47 49 50 50 50 56 70 69 68 72 72 71 74 76 67 76 78 76 70 67 69 69 73 75 72 72
48 47 45 47 52 38 35 35 30 30 31 32 36 41 46 49 50 51 50 51 51 54 59 69 77 74 76 73 79 84 84 79 72 74 67 68 69 75 79 77 75 74 74
50 50 48 51 56 51 31 30 30 32 36 41 44 47 47 47 48 48 54 59 61 65 65 68 76 80 81 83 83 85 77 74 73 71 72 78 80 80 76 76 78 78 80
60 67 82 70 55 44 41 32 34 33 35 36 35 38 43 49 54 61 60 62 63 62 63 68 82 88 90 79 81 79 82 76 76 80 76 79 77 82 79 80 78 78 83
67 63 53 51 38 38 38 34 35 34 27 28 38 43 47 49 51 62 63 59 59 64 68 77 84 92 87 84 81 83 82 88 88 76 86 84 82 83 80 77 81 85 81
70 66 64 47 42 57 60 45 37 32 32 38 47 52 54 55 55 56 59 66 66 69 72 72 80 85 87 82 80 86 97 98 90 86 85 84 80 82 78 78 78 80 81
64 66 58 65 70 68 66 68 39 40 41 46 56 59 60 63 65 69 69 68 68 69 71 75 80 78 77 90 98 90 81 86 88 82 80 86 77 79 78 76 79 83 84
96 96 88 70 54 59 50 52 47 52 49 54 64 67 72 71 73 70 68 70 79 73 72 71 76 81 83 79 73 80 87 91 87 82 82 85 82 80 81 81 71 63 79
77 46 40 36 34 37 59 55 57 57 57 64 70 68 69 75 72 71 72 74 75 70 66 80 82 68 60 62 78 81 84 95 95 89 70 80 86 90 83 68 68 66 72
Wind_Speed
22 20 17 16 15 14 12 11 9 6 4 2 1 2 1 3 7 8 7 8 10 10 9 8 8 8 8 8 8 8 8 8 9 10 10 10 11 12 13 13 12 11 10
22 24 19 18 17 15 14 11 9 6 4 3 3 4 2 4 6 9 9 8 7 7 8 8 7 7 8 8 8 9 8 8 10 10 10 10 11 12 12 12 12 12 11
22 22 23 21 18 18 15 11 8 6 4 3 3 4 4 4 6 9 9 8 7 5 6 6 7 7 9 9 10 9 8 10 10 10 10 11 11 12 12 12 13 12 11
23 23 24 25 22 18 14 11 9 6 4 3 4 4 5 4 8 10 8 6 4 2 1 2 3 5 8 8 10 9 8 10 9 9 10 10 12 13 13 13 13 13 13
25 26 28 27 22 18 14 11 10 7 4 3 6 5 2 7 9 10 9 5 3 2 0 3 5 7 10 9 9 9 9 10 8 9 9 11 13 13 14 15 15 14 14
30 30 29 26 21 18 15 13 11 8 4 4 6 7 5 7 9 9 8 6 5 3 2 3 6 9 12 12 12 11 10 8 8 9 9 10 13 14 15 16 16 17 16
33 32 29 25 22 20 18 15 13 9 5 6 8 7 5 6 8 8 8 8 8 5 2 1 6 10 14 12 14 11 9 8 9 10 10 11 13 15 17 18 18 18 18
36 34 30 27 24 22 20 18 15 11 5 4 3 4 1 1 5 6 6 9 7 6 3 2 6 10 11 11 13 14 10 9 10 13 12 13 15 19 20 19 20 20 20
37 35 32 30 27 25 24 20 16 12 9 5 4 3 2 3 0 3 6 7 7 6 0 7 11 10 12 14 15 13 13 9 12 14 14 16 19 22 22 22 23 23 24
39 37 35 32 30 27 24 21 17 14 11 9 5 4 3 3 2 1 4 8 6 5 10 15 12 16 11 11 12 12 12 12 14 16 18 19 22 23 24 25 25 26 26
40 38 35 32 30 28 24 22 20 16 12 11 7 5 3 3 3 3 2 4 6 11 17 10 15 13 9 12 11 9 9 11 15 18 21 23 26 27 28 28 27 27 27
37 37 36 33 31 29 27 22 18 15 13 11 9 7 6 3 3 3 1 3 6 10 11 17 14 6 11 10 11 14 15 17 18 22 25 28 30 30 28 28 28 28 29
38 39 38 35 33 31 27 23 19 16 14 11 9 7 5 4 4 4 3 3 3 4 6 11 7 13 9 11 20 24 21 20 23 25 26 26 27 28 28 27 29 30 31
41 40 37 34 33 29 26 22 18 15 12 10 9 6 5 5 5 5 4 3 3 3 4 7 12 9 9 27 25 22 22 23 23 25 27 28 29 27 27 28 31 31 31
36 38 37 35 32 28 25 22 19 16 11 9 8 6 5 5 5 5 6 6 5 2 3 4 5 6 26 26 25 23 25 27 27 27 26 26 26 27 28 31 29 29 29
35 39 39 34 32 28 23 21 17 14 12 9 7 6 6 5 6 7 8 9 9 9 3 5 15 25 26 26 27 25 28 24 25 23 25 26 27 27 27 28 30 31 31
36 39 38 35 33 27 24 20 15 13 11 9 6 6 6 7 8 10 10 10 12 13 9 13 18 25 25 27 29 31 29 28 27 26 24 26 26 26 30 29 29 30 31
35 37 38 36 31 28 24 17 16 14 10 9 6 6 6 8 10 11 11 13 14 14 17 15 19 24 25 28 30 30 28 30 28 26 25 27 28 28 28 29 27 28 29
35 36 37 35 31 26 21 19 16 12 9 6 5 6 6 9 11 12 13 14 15 16 18 21 20 23 26 29 29 28 28 28 27 26 28 27 29 28 26 26 28 29 30
34 34 32 27 22 19 17 13 12 10 7 5 4 6 7 9 10 10 10 13 16 16 16 21 21 21 23 26 24 26 25 25 28 28 31 27 27 25 28 31 29 29 30
27 25 24 24 21 18 13 10 8 6 4 3 5 5 6 7 9 11 14 13 13 17 20 22 18 18 19 22 22 24 24 28 29 31 29 24 26 29 35 31 30 30 29
28 28 24 19 16 14 10 8 5 3 2 2 4 4 6 8 9 11 12 14 15 19 19 16 17 16 22 23 25 23 25 24 10 23 15 30 29 29 33 33 31 30 32
26 21 18 17 13 11 8 4 2 1 1 2 4 5 6 6 8 11 12 13 16 17 18 22 22 23 25 28 30 29 23 21 26 31 30 30 28 30 33 32 31 33 34
25 22 16 13 10 7 6 5 1 2 3 4 4 6 8 10 11 13 16 18 17 19 20 19 24 28 28 25 23 24 27 28 29 29 27 21 26 29 31 31 34 33 32
20 16 14 12 12 10 5 2 1 3 6 5 5 8 10 12 12 15 17 19 21 21 21 22 21 21 22 25 27 25 24 21 22 26 26 24 17 24 28 33 28 24 25
18 16 13 9 7 7 5 2 4 5 7 8 9 11 12 12 15 15 19 19 18 21 23 19 21 28 28 27 22 19 23 21 21 16 8 8 21 20 9 19 21 25 34
Wind_Direction
205 202 201 194 186 185 186 179 185 193 217 228 200 129 150 135 141 138 127 137 129 108 99 86 72 62 54 48 45 40 34 27 22 17 12 6 5 0 353 350 347 340 328
201 198 199 189 192 191 190 191 198 208 209 186 161 137 127 150 151 149 138 137 139 123 97 77 61 53 37 35 35 28 26 20 13 11 13 10 3 358 353 347 341 335 320
206 205 201 200 190 182 195 205 202 198 193 183 170 155 154 173 169 159 148 142 137 127 109 81 58 52 35 31 22 20 20 14 12 10 7 7 5 2 356 350 342 334 322
209 203 198 189 188 193 201 200 198 191 180 170 178 169 165 188 182 171 164 155 138 121 76 27 40 29 32 21 12 12 7 3 7 5 4 6 359 353 348 344 339 336 328
203 201 190 189 193 198 197 198 190 190 171 166 162 160 169 186 172 175 173 176 173 159 123 344 356 4 4 8 7 358 347 347 353 353 352 353 350 348 346 340 334 328 320
201 199 197 198 198 199 194 187 181 163 152 152 156 159 140 165 179 189 188 198 195 201 308 346 351 347 351 356 352 345 338 336 337 333 331 338 342 338 335 329 324 319 314
203 200 198 198 200 204 198 187 170 155 113 147 147 142 148 162 179 194 201 211 192 199 200 340 339 341 344 344 343 347 333 321 322 323 318 320 327 328 325 321 316 312 309
204 199 203 202 201 197 190 185 182 162 135 132 157 129 107 206 200 206 210 195 188 181 178 1 346 337 329 327 331 330 325 314 313 318 311 314 318 321 318 315 311 307 304
203 204 205 203 200 200 195 190 188 186 162 135 135 162 103 214 314 200 179 169 178 180 227 321 325 337 330 318 314 315 321 307 310 313 308 307 312 315 314 310 306 302 299
205 205 203 199 199 197 197 192 189 191 181 162 133 106 106 124 161 324 211 204 206 242 316 320 324 328 331 326 327 321 306 300 304 305 305 304 306 308 306 303 300 297 297
202 201 200 197 197 195 196 190 184 183 177 171 169 157 157 149 159 134 261 287 258 280 309 316 326 330 334 333 335 345 340 315 307 304 303 302 302 304 301 299 298 295 293
196 197 197 197 197 192 190 188 181 179 176 171 172 175 181 171 181 166 199 271 265 304 303 313 326 319 330 332 335 331 327 316 310 305 302 300 299 299 298 297 296 294 292
193 195 194 194 195 192 187 182 180 177 173 170 171 173 181 189 196 211 228 257 264 289 298 300 303 313 306 320 325 321 317 311 307 304 302 299 299 298 295 294 294 291 288
190 192 192 192 193 186 183 181 180 175 172 174 169 176 189 203 215 229 230 226 305 279 272 257 289 265 290 320 322 320 314 311 307 305 303 299 298 295 293 294 293 291 288
190 190 192 188 189 183 182 179 176 175 173 183 174 184 203 220 230 240 251 247 205 276 276 270 280 286 315 320 322 316 310 305 304 301 300 300 297 295 294 293 291 290 290
188 188 188 185 183 179 179 177 172 179 171 193 186 199 217 237 250 255 269 270 251 245 243 248 284 306 316 317 321 316 316 309 307 302 299 299 297 296 294 294 292 289 288
184 185 185 181 178 179 179 179 170 184 171 194 188 208 231 251 258 265 273 263 269 268 253 284 291 310 313 317 320 323 318 314 313 304 301 299 298 295 295 293 291 289 287
181 180 181 179 177 178 182 179 179 186 176 196 203 229 246 259 262 267 266 274 274 280 272 278 295 308 309 316 316 315 312 311 305 304 301 300 298 296 295 293 291 290 290
173 180 179 176 178 174 173 175 181 175 179 193 216 243 261 261 263 270 275 275 278 282 281 287 293 304 310 316 315 310 306 300 304 299 300 300 299 297 296 295 293 292 292
164 167 168 165 167 165 171 167 167 173 175 196 232 253 264 267 270 277 280 283 282 284 293 296 297 302 306 314 306 302 303 303 300 302 301 298 297 296 296 295 294 292 292
145 154 155 159 163 157 162 178 175 178 179 226 249 261 271 269 281 284 289 292 297 299 303 299 294 298 302 304 304 304 295 303 304 304 301 300 303 301 296 297 294 292 290
139 143 144 145 146 155 152 170 161 181 174 263 282 294 292 289 287 290 289 294 294 300 304 304 297 293 299 300 301 298 298 304 306 312 310 301 300 292 291 292 292 289 287
128 132 142 151 152 138 138 120 183 125 37 309 314 317 327 323 309 308 307 302 298 299 296 299 299 294 293 298 300 298 294 293 295 296 302 295 295 287 290 290 288 287 286
134 136 145 152 156 147 158 145 101 50 9 335 325 337 334 322 321 318 313 308 307 304 306 300 295 296 297 298 296 300 299 297 295 294 295 287 294 284 289 289 289 288 287
139 156 169 158 164 163 166 174 321 13 2 352 354 339 327 327 323 319 312 310 309 308 309 303 296 295 297 297 299 301 297 302 296 295 294 282 289 297 296 287 292 290 283
138 157 153 146 150 168 177 207 306 324 335 342 335 332 331 322 319 312 310 314 312 313 311 310 304 306 310 310 305 295 293 285 290 304 312 286 301 307 302 289 289 289 288